EW3711 Weather Reports


time (UTC)temp
C
wind
direction
speed
KPH
gust
KPH
rain 1hr
cm
rain 24hr
cm
rain mn
cm
humidity
%
barometer
mb
20260502194443 18 221 3.2 19.3 0.00 0.00 0.00 38 1006.8
20260502193939 18 160 3.2 16.1 0.00 0.00 0.00 41 1006.8
20260502193436 18 160 6.4 20.9 0.00 0.00 0.00 39 1006.8
20260502192931 18 169 8.0 20.9 0.00 0.00 0.00 40 1006.8
20260502192429 18 193 6.4 20.9 0.00 0.00 0.00 41 1006.8
20260502191926 18 146 8.0 25.7 0.00 0.00 0.00 42 1006.8
20260502191424 17 179 9.7 25.7 0.00 0.00 0.00 41 1006.8
20260502190921 17 216 8.0 19.3 0.00 0.00 0.00 40 1006.8
20260502190418 17 198 11.3 20.9 0.00 0.00 0.00 42 1006.8
20260502185914 17 190 12.9 22.5 0.00 0.00 0.00 41 1006.8
20260502185409 17 181 14.5 27.4 0.00 0.00 0.00 42 1006.8
20260502184907 17 180 14.5 27.4 0.00 0.00 0.00 42 1006.8
20260502184402 16 160 14.5 25.7 0.00 0.00 0.00 44 1006.8
20260502183859 16 165 17.7 27.4 0.00 0.00 0.00 42 1006.8
20260502183355 16 203 19.3 27.4 0.00 0.00 0.00 41 1007.2
20260502182850 16 195 17.7 30.6 0.00 0.00 0.00 45 1007.2
20260502182346 16 174 19.3 32.2 0.00 0.00 0.00 42 1007.2
20260502181842 16 175 17.7 32.2 0.00 0.00 0.00 43 1007.2
20260502181341 16 141 17.7 29.0 0.00 0.00 0.00 43 1007.2
20260502180839 15 150 19.3 29.0 0.00 0.00 0.00 45 1007.2
20260502180336 15 167 19.3 32.2 0.00 0.00 0.00 44 1007.5
20260502170255 14 172 20.9 30.6 0.00 0.00 0.00 47 1007.9
20260502164242 13 172 19.3 32.2 0.00 0.00 0.00 49 1007.9
20260502163738 13 122 20.9 32.2 0.00 0.00 0.00 50 1007.9
20260502163235 13 132 16.1 27.4 0.00 0.00 0.00 53 1007.9
20260502162731 13 101 12.9 24.1 0.00 0.00 0.00 53 1008.2
20260502162229 13 160 16.1 25.7 0.00 0.00 0.00 50 1008.6
20260502161726 13 122 19.3 27.4 0.00 0.00 0.00 52 1008.6
20260502161222 13 105 19.3 27.4 0.00 0.00 0.00 52 1008.6
20260502160720 13 165 16.1 25.7 0.00 0.00 0.00 57 1008.6
20260502160219 12 100 11.3 24.1 0.00 0.00 0.00 57 1008.6
20260502152143 10 172 1.6 11.3 0.00 0.00 0.00 63 1009.7
20260502151640 9 201 1.6 11.3 0.00 0.00 0.00 64 1010.0
20260502151137 9 204 0.0 0.0 0.00 0.00 0.00 65 1010.0
20260502150635 9 169 0.0 12.9 0.00 0.00 0.00 64 1009.7
20260502150131 9 181 1.6 12.9 0.00 0.00 0.00 63 1010.0
20260502130520 7 152 17.7 29.0 0.00 0.00 0.00 67 1009.7
20260502123503 5 165 6.4 14.5 0.00 0.00 0.00 77 1010.3
20260502122959 5 150 4.8 12.9 0.00 0.00 0.00 78 1010.3
20260502122455 4 166 4.8 12.9 0.00 0.00 0.00 78 1010.3
20260502121954 4 173 3.2 12.9 0.00 0.00 0.00 79 1010.3
20260502121450 3 147 1.6 9.7 0.00 0.00 0.00 80 1010.3
20260502120948 3 170 3.2 9.7 0.00 0.00 0.00 81 1010.3
20260502120444 3 162 1.6 8.0 0.00 0.00 0.00 83 1010.7
20260502115439 3 171 1.6 6.4 0.00 0.00 0.00 83 1010.7
20260502114934 2 152 1.6 6.4 0.00 0.00 0.00 83 1010.7
20260502114432 2 134 1.6 6.4 0.00 0.00 0.00 84 1010.7
20260502113929 2 145 1.6 8.0 0.00 0.00 0.00 85 1010.7
20260502113426 2 117 1.6 8.0 0.00 0.00 0.00 85 1011.0
20260502112925 2 148 1.6 8.0 0.00 0.00 0.00 86 1010.7
20260502112422 2 122 1.6 8.0 0.00 0.00 0.00 85 1011.0
20260502111920 2 115 1.6 9.7 0.00 0.00 0.00 85 1011.0
20260502111416 2 136 1.6 9.7 0.00 0.00 0.00 86 1011.0
20260502110914 1 133 0.0 6.4 0.00 0.00 0.00 86 1011.0
20260502110411 1 143 0.0 4.8 0.00 0.00 0.00 87 1011.0
20260502105909 1 125 0.0 8.0 0.00 0.00 0.00 87 1011.0
20260502105405 1 139 0.0 8.0 0.00 0.00 0.00 86 1011.0
20260502104903 1 131 0.0 8.0 0.00 0.00 0.00 86 1011.5
20260502104400 1 99 1.6 8.0 0.00 0.00 0.00 85 1011.5
20260502103858 2 136 1.6 9.7 0.00 0.00 0.00 86 1011.5
20260502103355 2 136 1.6 9.7 0.00 0.00 0.00 86 1011.5
20260502102852 2 136 3.2 8.0 0.00 0.00 0.00 86 1011.5
20260502102349 2 126 3.2 8.0 0.00 0.00 0.00 86 1011.5
20260502101846 1 134 1.6 8.0 0.00 0.00 0.00 86 1011.8
20260502101344 1 124 0.0 8.0 0.00 0.00 0.00 86 1011.8
20260502100842 1 126 0.0 8.0 0.00 0.00 0.00 86 1011.8
20260502100342 1 131 0.0 9.7 0.00 0.00 0.00 85 1011.8
20260502091315 2 140 3.2 9.7 0.00 0.00 0.00 82 1012.1
20260502090813 2 147 3.2 11.3 0.00 0.00 0.00 82 1012.1
20260502090309 2 147 1.6 11.3 0.00 0.00 0.00 81 1012.5
20260502071204 4 76 14.5 27.4 0.00 0.00 0.00 72 1013.6
20260502070703 4 79 11.3 22.5 0.00 0.00 0.00 72 1013.9
20260502070200 3 92 9.7 20.9 0.00 0.00 0.00 72 1013.9
20260502065658 3 96 12.9 20.9 0.00 0.00 0.00 72 1013.9
20260502065155 4 91 11.3 19.3 0.00 0.00 0.00 72 1014.3
20260502064654 4 93 11.3 19.3 0.00 0.00 0.00 71 1014.3
20260502064151 4 82 14.5 22.5 0.00 0.00 0.00 71 1014.3
20260502063649 5 108 17.7 24.1 0.00 0.00 0.00 70 1014.6
20260502063146 5 104 16.1 24.1 0.00 0.00 0.00 69 1014.6
20260502062643 5 91 12.9 24.1 0.00 0.00 0.00 71 1014.6
20260502062141 4 89 9.7 20.9 0.00 0.00 0.00 72 1014.6
20260502061639 4 96 9.7 20.9 0.00 0.00 0.00 72 1014.6
20260502061136 4 83 11.3 20.9 0.00 0.00 0.00 72 1014.6
20260502060631 5 82 12.9 25.7 0.00 0.00 0.00 71 1014.6
20260502060127 5 82 14.5 25.7 0.00 0.00 0.00 71 1014.6
20260502055626 4 104 12.9 25.7 0.00 0.00 0.00 72 1015.0
20260502055123 5 100 9.7 25.7 0.00 0.00 0.00 72 1015.0
20260502054622 4 98 8.0 20.9 0.00 0.00 0.00 74 1015.0
20260502054119 4 87 8.0 17.7 0.00 0.00 0.00 74 1015.0
20260502053616 4 113 8.0 19.3 0.00 0.00 0.00 74 1015.0
20260502053113 4 86 8.0 19.3 0.00 0.00 0.00 74 1015.0
20260502052612 4 86 8.0 17.7 0.00 0.00 0.00 73 1015.0
20260502052110 4 96 9.7 17.7 0.00 0.00 0.00 73 1015.3
20260502051607 5 115 9.7 19.3 0.00 0.00 0.00 73 1015.3
20260502051105 5 100 9.7 19.3 0.00 0.00 0.00 72 1015.3
20260502050601 5 89 8.0 19.3 0.00 0.00 0.00 72 1015.3
20260502050058 5 78 6.4 19.3 0.00 0.00 0.00 72 1015.3
20260502045554 5 79 9.7 19.3 0.00 0.00 0.00 71 1015.3
20260502045051 5 97 9.7 19.3 0.00 0.00 0.00 71 1015.6
20260502044548 5 114 8.0 17.7 0.00 0.00 0.00 70 1015.6
20260502044045 5 85 6.4 17.7 0.00 0.00 0.00 70 1015.6
20260502043542 5 102 8.0 17.7 0.00 0.00 0.00 70 1015.6
20260502043038 5 86 8.0 19.3 0.00 0.00 0.00 70 1015.6
20260502042533 5 82 9.7 19.3 0.00 0.00 0.00 69 1015.6
20260502042031 5 88 11.3 19.3 0.00 0.00 0.00 68 1015.6
20260502041529 6 96 12.9 19.3 0.00 0.00 0.00 68 1015.6
20260502041026 6 80 12.9 20.9 0.00 0.00 0.00 66 1015.6
20260502040522 6 92 12.9 20.9 0.00 0.00 0.00 66 1015.6
20260502040020 6 96 8.0 19.3 0.00 0.00 0.00 66 1015.6
20260502035515 6 97 3.2 14.5 0.00 0.00 0.00 67 1015.6
20260502035013 6 67 3.2 12.9 0.00 0.00 0.00 69 1015.6
20260502034511 5 99 1.6 8.0 0.00 0.00 0.00 70 1015.6
20260502034009 6 104 1.6 11.3 0.00 0.00 0.00 69 1015.6
20260502033507 6 68 0.0 11.3 0.00 0.00 0.00 69 1015.6
20260502033004 6 89 0.0 9.7 0.00 0.00 0.00 68 1016.1
20260502032500 5 27 0.0 8.0 0.00 0.00 0.00 70 1015.6
20260502031956 6 32 0.0 8.0 0.00 0.00 0.00 70 1016.1
20260502031454 6 152 0.0 4.8 0.00 0.00 0.00 70 1016.1
20260502030952 6 45 0.0 4.8 0.00 0.00 0.00 70 1016.1
20260502030450 6 141 0.0 4.8 0.00 0.00 0.00 70 1016.1
20260502025948 6 158 0.0 4.8 0.00 0.00 0.00 70 1016.1
20260502025445 6 143 0.0 3.2 0.00 0.00 0.00 70 1016.1
20260502024943 6 80 0.0 0.0 0.00 0.00 0.00 69 1016.1
20260502024441 6 64 0.0 0.0 0.00 0.00 0.00 69 1016.1
20260502023939 6 102 0.0 0.0 0.00 0.00 0.00 69 1016.1
20260502023436 6 92 0.0 1.6 0.00 0.00 0.00 69 1016.1
20260502022933 6 140 0.0 1.6 0.00 0.00 0.00 68 1015.6
20260502022430 6 123 0.0 3.2 0.00 0.00 0.00 68 1016.1
20260502021927 7 33 0.0 3.2 0.00 0.00 0.00 67 1016.1
20260502021424 7 85 0.0 12.9 0.00 0.00 0.00 66 1016.1
20260502020921 8 70 1.6 12.9 0.00 0.00 0.00 65 1016.1
20260502020419 8 101 0.0 4.8 0.00 0.00 0.00 64 1015.6
20260502015915 8 56 0.0 4.8 0.00 0.00 0.00 65 1015.6
20260502015413 8 103 0.0 4.8 0.00 0.00 0.00 64 1015.6
20260502014910 8 91 0.0 3.2 0.00 0.00 0.00 62 1015.6
20260502014406 9 30 0.0 0.0 0.00 0.00 0.00 60 1015.6
20260502013903 10 89 0.0 0.0 0.00 0.00 0.00 57 1016.1
20260502013358 10 77 0.0 0.0 0.00 0.00 0.00 56 1016.1
20260502012855 11 118 0.0 0.0 0.00 0.00 0.00 55 1016.1
20260502012353 11 118 0.0 6.4 0.00 0.00 0.00 52 1016.1
20260502011850 12 86 1.6 9.7 0.00 0.00 0.00 50 1016.1
20260502011346 12 80 1.6 9.7 0.00 0.00 0.00 50 1016.1
20260502010843 12 131 0.0 9.7 0.00 0.00 0.00 49 1016.1
20260502010340 13 92 0.0 9.7 0.00 0.00 0.00 46 1016.1
20260502005837 13 97 0.0 8.0 0.00 0.00 0.00 45 1016.1
20260502005335 13 83 0.0 0.0 0.00 0.00 0.00 43 1016.1
20260502004832 13 98 0.0 0.0 0.00 0.00 0.00 44 1016.1
20260502004328 13 91 0.0 0.0 0.00 0.00 0.00 42 1016.1
20260502003826 13 166 0.0 3.2 0.00 0.00 0.00 44 1016.1
20260502003323 13 82 0.0 8.0 0.00 0.00 0.00 42 1016.1
20260502002819 13 47 0.0 14.5 0.00 0.00 0.00 41 1016.4
20260502002316 13 99 0.0 14.5 0.00 0.00 0.00 41 1016.1
20260502001813 14 111 0.0 14.5 0.00 0.00 0.00 40 1016.1
20260502001311 14 118 0.0 9.7 0.00 0.00 0.00 40 1016.4
20260502000809 14 115 0.0 0.0 0.00 0.00 0.00 39 1016.4
20260502000306 14 149 0.0 8.0 0.00 0.00 0.00 39 1016.4
20260501235802 13 135 0.0 8.0 0.00 0.00 0.00 41 1016.4
20260501235258 13 65 0.0 6.4 0.00 0.00 0.00 41 1016.4
20260501234754 13 64 0.0 0.0 0.00 0.00 0.00 41 1016.4
20260501234251 13 134 0.0 4.8 0.00 0.00 0.00 41 1016.4
20260501233749 14 43 1.6 12.9 0.00 0.00 0.00 41 1016.7
20260501233246 14 139 0.0 12.9 0.00 0.00 0.00 40 1016.7
20260501232741 14 136 0.0 9.7 0.00 0.00 0.00 40 1016.7
20260501232239 14 306 0.0 0.0 0.00 0.00 0.00 39 1016.7
20260501231737 14 165 0.0 0.0 0.00 0.00 0.00 40 1016.7
20260501231235 13 40 0.0 0.0 0.00 0.00 0.00 40 1016.7
20260501230733 14 108 0.0 0.0 0.00 0.00 0.00 40 1016.7
20260501230231 14 117 0.0 11.3 0.00 0.00 0.00 40 1016.7
20260501225728 14 168 0.0 11.3 0.00 0.00 0.00 40 1016.7
20260501225225 14 190 0.0 11.3 0.00 0.00 0.00 40 1016.7
20260501224721 14 186 0.0 8.0 0.00 0.00 0.00 39 1017.1
20260501224219 14 186 0.0 12.9 0.00 0.00 0.00 39 1017.1
20260501223715 13 204 0.0 12.9 0.00 0.00 0.00 41 1017.1
20260501223212 13 258 0.0 0.0 0.00 0.00 0.00 40 1017.1
20260501222708 13 177 0.0 0.0 0.00 0.00 0.00 40 1017.1
20260501222205 13 169 1.6 14.5 0.00 0.00 0.00 42 1017.1
20260501221701 13 139 1.6 14.5 0.00 0.00 0.00 39 1017.4
20260501221159 13 161 0.0 11.3 0.00 0.00 0.00 41 1017.4
20260501220657 13 174 0.0 0.0 0.00 0.00 0.00 41 1017.4
20260501220154 13 26 0.0 0.0 0.00 0.00 0.00 41 1017.4
20260501215650 13 285 0.0 6.4 0.00 0.00 0.00 41 1017.8
20260501215145 13 216 0.0 6.4 0.00 0.00 0.00 40 1017.8
20260501214641 13 210 0.0 6.4 0.00 0.00 0.00 41 1017.8
20260501214136 13 195 1.6 17.7 0.00 0.00 0.00 40 1017.8
20260501213634 13 250 1.6 17.7 0.00 0.00 0.00 40 1017.8
20260501213130 13 245 0.0 0.0 0.00 0.00 0.00 41 1017.8
20260501212627 13 32 0.0 0.0 0.00 0.00 0.00 40 1017.8
20260501212123 13 314 0.0 1.6 0.00 0.00 0.00 39 1017.8
20260501211620 13 203 0.0 1.6 0.00 0.00 0.00 41 1017.8
20260501211118 12 136 0.0 0.0 0.00 0.00 0.00 41 1017.8
20260501210614 12 181 0.0 0.0 0.00 0.00 0.00 41 1017.8
20260501210111 12 193 0.0 12.9 0.00 0.00 0.00 40 1018.2
20260501205607 12 210 0.0 12.9 0.00 0.00 0.00 39 1018.2
20260501205105 12 159 0.0 12.9 0.00 0.00 0.00 42 1018.2
20260501204601 12 205 0.0 1.6 0.00 0.00 0.00 41 1018.2
20260501204057 12 240 0.0 1.6 0.00 0.00 0.00 41 1018.2
20260501203554 13 252 0.0 6.4 0.00 0.00 0.00 40 1018.2
20260501203051 13 171 0.0 6.4 0.00 0.00 0.00 40 1018.2
20260501202548 12 155 0.0 0.0 0.00 0.00 0.00 40 1018.2
20260501202045 12 23 0.0 0.0 0.00 0.00 0.00 40 1018.5
20260501201542 12 203 0.0 0.0 0.00 0.00 0.00 41 1018.5
20260501201038 11 67 1.6 14.5 0.00 0.00 0.00 42 1018.5
20260501200535 11 233 1.6 14.5 0.00 0.00 0.00 43 1018.5
20260501200033 11 212 0.0 9.7 0.00 0.00 0.00 43 1018.5
20260501195530 11 355 0.0 9.7 0.00 0.00 0.00 43 1018.5
20260501195025 11 231 1.6 14.5 0.00 0.00 0.00 44 1018.5